Flag for Vatican City State Weather past 2 weeks in Vatican City, Vatican City State

Now
77 °F

Passing clouds.


Feels Like: 79 °F
Forecast: 69 / 92 °F
Wind: 5 mph from East

Location: Rome / Ciampino

Current Time: Jul 7, 2015 at 7:50:26 AM

Latest Report: Jul 7, 2015 at 6:50 AM


Visibility: N/A

Pressure: 30.04 "Hg

Humidity: 69%

Dew point: 66 °F

Location of Vatican CityLocation

Historic Weather in Vatican City — Graph

°F

Vatican City temperature yesterday

Maximum temperature yesterday: 91 °F (at 12:20 PM)
Minimum temperature yesterday: 72 °F (at 5:50 AM)
Average temperature yesterday: 81 °F

Past Weeks' High & Low Weather Summary

 TemperatureHumidityPressure
High95 °F (Jul 4, 2:20 PM)94% (Jun 30, 2:15 AM)30.21 "Hg (Jun 30, 2:15 AM)
Low59 °F (Jun 22, 6:15 AM)19% (Jun 27, 2:15 PM)29.86 "Hg (Jun 23, 8:45 PM)
Average77 °F60%30.06 "Hg
* Reported Jun 22 6:15 AM — Jul 7 6:20 AM, Vatican City, Weather by CustomWeather, © 2015

Note: Actual official high and low records may vary slightly from our data, if they occured in-between our weather recording intervals... More about our weather records

Advertising

Vatican City weather history for previous 24 hours

 ConditionsComfort  
Time TempWeatherWind HumidityBarometerVisibility
6:20 AM
Tue, Jul 7
73 °FClear.3 mph74%30.04 "Hg6 mi
5:50 AM73 °FClear.3 mph69%30.04 "Hg6 mi
5:20 AM73 °FClear.3 mph69%30.04 "Hg6 mi
4:50 AM73 °FClear.5 mph69%30.04 "Hg10 mi
4:20 AM73 °FClear.5 mph74%30.04 "Hg10 mi
3:50 AM75 °FClear.5 mph65%30.04 "Hg10 mi
3:20 AM75 °FClear.5 mph65%30.07 "Hg10 mi
2:50 AM75 °FClear.3 mph65%30.07 "Hg10 mi
2:20 AM75 °FClear.3 mph61%30.07 "Hg10 mi
1:50 AM75 °FClear.2 mph61%30.07 "Hg10 mi
1:20 AM75 °FClear.2 mph61%30.07 "Hg10 mi
12:50 AM77 °FClear.5 mph61%30.07 "Hg10 mi
12:20 AM77 °FClear.3 mph65%30.07 "Hg10 mi
11:50 PM
Mon, Jul 6
77 °FClear.2 mph65%30.07 "Hg10 mi
11:20 PM77 °FClear.2 mph79%30.07 "Hg10 mi
10:50 PM79 °FClear.1 mph79%30.07 "Hg10 mi
10:20 PM81 °FClear.2 mph74%30.07 "Hg10 mi
9:50 PM81 °FClear.2 mph74%30.07 "Hg10 mi
9:20 PM81 °FPassing clouds.3 mph70%30.07 "HgN/A
8:50 PM82 °FSunny.5 mph66%30.07 "Hg10 mi
8:20 PM82 °FPassing clouds.5 mph66%30.07 "HgN/A
7:50 PM82 °FPassing clouds.7 mph70%30.07 "HgN/A
7:20 PM84 °FPassing clouds.6 mph62%30.07 "HgN/A
6:50 PM84 °FPassing clouds.6 mph66%30.07 "HgN/A
6:20 PM86 °FScattered clouds.7 mph62%30.07 "HgN/A
5:50 PM88 °FScattered clouds.7 mph59%30.07 "HgN/A
4:20 PM90 °FPassing clouds.8 mph55%30.07 "HgN/A
3:50 PM90 °FPassing clouds.8 mph55%30.07 "HgN/A
3:20 PM90 °FPassing clouds.8 mph55%30.07 "HgN/A
2:50 PM90 °FPassing clouds.8 mph52%30.07 "HgN/A
2:20 PM90 °FPassing clouds.7 mph52%30.07 "HgN/A
1:50 PM91 °FPassing clouds.7 mph52%30.07 "HgN/A
1:20 PM90 °FPassing clouds.7 mph55%30.07 "HgN/A
12:50 PM90 °FPassing clouds.9 mph55%30.09 "HgN/A
12:20 PM91 °FPassing clouds.5 mph44%30.09 "HgN/A
11:50 AM90 °FPassing clouds.5 mph46%30.09 "HgN/A
11:20 AM90 °FSunny.3 mph49%30.09 "Hg10 mi
10:50 AM86 °FSunny.3 mph55%30.09 "Hg10 mi
10:20 AM86 °FSunny.2 mph55%30.09 "Hg10 mi
9:50 AM84 °FPassing clouds.3 mph58%30.09 "HgN/A
9:20 AM82 °FSunny.2 mph62%30.09 "Hg10 mi
8:50 AM81 °FPassing clouds.3 mph66%30.09 "HgN/A
8:20 AM81 °FPassing clouds.3 mph66%30.09 "HgN/A
7:50 AM79 °FPassing clouds.5 mph65%30.09 "HgN/A
7:20 AM77 °FPassing clouds.3 mph65%30.09 "HgN/A
Weather by CustomWeather, © 2015

See weather overviewHow to use our weather pages